Probability
17 22 26 24 17 11 7 7 7 7 6 4 3 1 0 0 0 0 0 0 0 1 2 2 1 0 0 0 0 0 0 0 0 0 1 1 1 0 0 0 0 0 0
20 24 28 26 20 13 9 8 9 8 6 4 2 2 1 1 0 0 0 0 0 0 1 2 2 1 0 0 0 0 0 0 0 0 0 0 0 0 0 0 0 0 0
23 25 28 28 24 17 11 9 11 11 9 5 3 2 2 2 1 0 0 0 0 0 0 1 2 1 0 0 0 0 0 0 0 0 0 0 0 0 0 0 0 0 0
24 25 27 28 25 19 13 10 11 12 11 8 5 4 4 3 1 0 0 1 1 0 0 1 2 2 1 0 0 0 0 0 0 0 0 0 0 0 0 0 0 0 0
27 26 27 28 26 21 16 12 10 10 11 10 8 6 5 3 1 0 1 2 1 0 0 1 2 3 2 1 0 0 1 1 0 0 0 0 0 0 0 0 0 0 0
28 28 28 29 28 24 18 14 11 9 8 8 8 7 6 3 1 0 1 1 1 0 0 1 2 3 3 1 0 1 1 1 0 0 0 0 0 0 0 0 0 0 0
29 28 29 30 29 26 21 17 14 10 9 9 9 9 8 5 3 1 1 1 1 0 0 1 2 3 3 2 1 1 2 1 0 0 0 0 1 1 1 0 0 0 0
32 29 28 27 27 26 24 21 17 14 12 10 9 9 9 7 5 3 2 2 2 2 1 1 2 3 3 3 2 2 2 1 0 0 0 1 2 2 1 0 0 0 0
33 31 27 24 23 24 24 22 18 16 14 10 7 7 7 7 6 4 3 3 4 4 3 3 3 3 3 3 3 2 1 0 0 1 1 2 3 3 1 0 0 0 0
30 30 28 24 22 20 19 18 16 14 12 8 4 2 3 4 4 4 2 2 4 5 4 3 2 2 3 3 3 2 1 0 0 1 2 3 3 3 2 1 1 1 0
25 25 25 24 21 17 15 14 12 11 9 5 2 1 2 2 3 2 1 1 3 4 3 1 0 1 2 2 2 2 1 0 0 1 2 3 3 3 3 3 3 3 2
20 20 20 21 21 17 15 13 12 10 7 5 3 2 2 2 3 2 2 2 3 3 2 1 0 0 1 1 1 1 0 0 0 1 1 2 3 3 3 3 4 4 4
15 15 15 17 18 17 14 13 12 10 8 6 4 4 4 4 5 5 4 4 4 3 3 1 1 0 0 0 0 0 0 0 1 1 2 2 2 2 3 3 3 4 5
9 9 9 10 12 13 12 11 11 10 8 7 6 6 5 4 5 6 6 6 5 4 4 3 2 1 0 0 0 0 0 0 1 2 2 1 0 1 1 2 3 3 4
5 5 5 5 6 7 8 9 9 9 8 7 6 6 4 4 4 5 6 6 6 6 5 4 3 1 0 0 0 0 0 0 1 2 2 1 0 0 0 1 1 3 3
4 4 3 3 2 2 4 5 6 7 8 7 6 6 4 3 3 4 5 6 6 6 6 4 3 2 1 0 0 0 0 0 1 1 1 1 0 0 0 1 1 3 4
3 2 1 1 0 0 1 1 3 4 6 6 6 6 4 3 4 4 4 5 6 6 6 4 3 2 1 0 0 0 0 0 0 0 0 0 0 0 0 1 2 3 3
2 1 0 0 0 0 0 0 1 2 4 5 6 5 3 3 4 3 3 3 5 6 6 5 4 3 1 1 1 0 0 0 0 0 0 0 0 0 0 1 1 1 1
1 0 0 0 0 0 0 0 0 1 2 4 4 3 2 2 2 1 1 1 3 5 6 5 4 2 1 2 1 0 0 0 0 0 0 0 0 0 0 0 0 0 0
0 0 0 0 0 0 0 0 0 0 1 3 3 2 1 1 1 0 0 1 3 5 6 6 4 2 2 2 1 0 0 0 0 0 0 0 0 0 0 0 0 0 0
1 0 0 0 0 1 1 0 0 0 1 2 3 2 1 0 0 0 1 2 3 4 5 6 5 4 3 2 1 0 0 0 0 0 0 0 0 0 0 0 0 0 0
1 0 0 0 1 2 1 0 0 0 0 1 3 2 1 0 0 0 2 3 3 3 4 5 5 4 2 1 0 0 0 0 0 0 0 0 0 0 0 0 0 0 0
1 0 1 1 1 1 1 0 0 0 0 1 2 2 1 0 0 0 1 2 2 2 2 3 3 2 1 0 0 0 0 0 0 0 0 0 0 0 0 0 0 0 0
0 0 1 1 0 0 0 0 0 0 0 0 1 1 0 0 0 0 0 1 1 1 1 2 2 1 0 0 0 0 0 0 0 0 0 0 0 0 0 0 0 0 0
0 0 0 0 0 0 0 0 0 0 0 0 0 0 0 0 0 0 0 0 0 0 0 1 1 1 0 0 0 0 0 0 0 0 0 0 0 0 0 0 0 0 0
0 0 0 0 0 0 0 0 0 0 0 0 0 0 0 0 0 0 0 0 0 0 0 0 1 0 0 0 0 0 0 0 0 0 0 0 0 0 0 0 0 0 0
Wind_Speed
7 9 10 9 9 9 9 9 9 9 9 9 9 8 8 7 7 7 7 7 6 7 6 6 6 6 6 6 6 6 6 6 6 6 6 6 6 6 5 4 3 5 7
9 10 11 9 9 9 9 9 9 9 8 8 8 8 8 7 7 7 6 6 6 6 6 6 6 6 6 5 5 5 5 5 5 5 4 4 4 4 4 3 2 4 5
10 10 11 10 9 9 9 9 8 8 8 8 8 7 7 7 6 6 6 6 6 6 5 5 5 5 5 5 5 4 4 4 4 3 3 3 5 4 3 2 2 2 3
9 10 10 10 9 9 9 8 8 8 8 7 7 7 6 6 6 6 6 6 6 5 5 5 5 5 5 4 4 3 3 3 3 2 3 1 2 4 2 2 2 2 2
9 9 10 10 9 9 8 8 7 7 7 7 7 6 6 5 5 5 5 5 5 5 5 4 4 4 4 3 3 2 2 2 1 4 1 1 1 3 2 2 3 3 2
8 8 10 9 9 9 8 8 7 7 7 7 6 6 6 5 5 5 5 4 4 4 4 3 3 3 3 2 2 2 2 1 4 3 2 2 2 2 3 3 4 4 4
8 7 9 8 8 8 8 7 7 7 7 7 6 6 6 6 6 5 5 4 4 3 3 3 3 2 2 2 2 1 1 1 4 2 2 2 1 1 4 4 4 5 5
7 7 8 8 8 8 8 7 7 6 6 6 6 6 6 6 5 5 4 4 3 3 2 2 2 2 1 1 1 1 1 3 4 3 3 2 1 3 5 6 6 6 6
6 6 7 7 8 8 7 7 7 7 7 6 6 6 6 5 5 5 4 4 3 3 3 2 1 1 1 1 1 1 1 3 5 3 3 2 1 4 5 6 6 6 7
5 5 6 6 6 7 7 8 7 7 7 6 6 6 5 5 5 5 4 4 3 3 3 3 2 2 2 1 1 1 2 5 5 3 3 1 1 5 6 6 6 6 6
5 4 4 5 5 5 6 6 7 7 6 5 5 5 2 2 3 3 4 4 4 3 3 3 3 2 2 1 1 2 4 3 3 3 2 2 4 6 6 6 6 6 6
5 4 4 4 5 4 4 4 4 3 4 3 3 3 1 1 1 1 4 3 3 2 1 2 3 2 3 2 2 3 3 4 3 2 1 2 4 6 6 6 6 5 5
4 3 3 3 4 4 3 3 2 2 2 2 2 2 1 1 1 0 0 1 0 1 1 1 2 1 2 2 2 2 3 3 2 2 1 2 3 4 5 5 5 5 5
3 3 3 3 3 3 2 2 2 2 2 2 2 1 1 0 0 1 0 1 1 1 1 2 2 2 3 3 3 3 3 2 2 2 1 2 3 4 5 5 5 5 5
3 2 3 3 3 3 2 2 2 2 2 2 1 1 1 0 0 1 1 1 1 2 2 2 3 3 3 3 2 3 3 3 3 3 1 1 2 4 5 5 6 6 5
3 2 2 2 2 3 2 2 2 2 2 1 1 1 1 0 0 1 1 1 1 2 2 2 3 3 2 2 3 3 3 3 3 3 3 1 0 2 4 5 6 6 6
4 3 2 2 2 3 3 2 2 2 1 1 1 1 1 0 0 1 1 1 1 2 2 2 2 2 2 2 2 3 3 3 3 3 3 3 2 1 2 5 6 6 7
4 4 3 2 2 2 2 2 1 1 1 1 0 0 0 0 1 1 1 1 1 2 2 2 2 2 2 2 2 2 2 2 3 3 2 2 2 2 2 3 4 6 6
3 4 4 3 2 2 2 2 2 1 1 1 0 1 1 0 1 1 1 1 1 1 1 2 2 2 2 2 2 2 2 2 2 2 2 2 2 3 3 2 3 4 6
3 3 3 3 2 2 2 2 1 1 1 1 1 1 1 1 1 1 1 1 1 1 1 2 1 1 1 2 2 2 2 2 2 2 2 2 2 3 3 3 3 2 3
3 3 3 3 2 2 2 2 2 1 1 1 1 1 1 1 1 2 1 1 1 1 1 2 2 1 1 1 2 1 1 2 1 1 2 1 2 2 3 3 3 3 2
3 3 3 3 2 2 1 1 1 1 1 1 0 0 0 0 1 1 1 1 1 1 1 1 2 1 1 1 2 2 2 2 1 1 2 1 2 2 2 3 3 4 4
3 2 2 2 2 2 2 1 1 1 1 2 2 1 1 1 0 1 2 1 1 1 1 1 2 2 1 1 1 2 2 2 2 2 2 2 2 3 3 3 3 4 4
2 2 2 2 2 2 2 2 2 2 2 2 1 1 1 1 1 1 1 1 1 1 2 2 2 2 2 2 1 1 2 2 3 2 2 2 3 4 4 4 4 4 5
2 2 2 2 2 2 2 2 2 2 1 1 2 2 2 1 1 1 2 1 1 1 2 2 2 2 2 2 2 2 2 3 4 4 4 3 3 3 4 4 4 4 4
2 2 2 2 2 2 2 2 3 3 2 3 3 3 2 2 1 2 2 2 2 1 2 2 2 2 2 2 2 2 3 3 3 3 5 5 5 4 5 4 4 4 4
Wind_Direction
147 141 135 133 130 127 123 120 117 115 116 117 117 117 115 111 108 106 105 102 97 94 94 92 89 88 89 91 96 96 95 96 96 92 86 83 86 93 95 95 112 106 92
143 142 135 134 129 128 125 121 116 114 114 116 117 117 116 115 110 108 105 102 100 96 92 91 88 84 85 86 90 97 99 98 96 100 110 122 105 97 102 92 42 69 97
143 142 141 134 130 127 128 124 121 119 117 118 120 120 119 116 112 107 104 101 96 91 89 88 83 80 82 80 83 93 101 106 104 119 199 171 129 123 125 119 115 102 113
142 142 140 133 132 128 126 128 127 125 121 120 119 119 120 118 114 108 104 99 93 86 85 85 83 79 78 79 77 83 96 109 119 207 212 168 146 128 158 173 175 175 168
142 142 132 133 133 131 126 126 130 127 123 119 116 113 112 116 116 111 105 99 94 87 83 85 84 81 79 76 75 78 86 94 162 230 228 228 203 139 204 216 217 215 205
141 142 134 136 137 132 128 125 126 128 125 122 119 119 118 113 116 110 101 96 94 90 86 84 84 85 83 78 72 76 94 110 234 220 226 233 224 155 232 237 233 231 229
140 140 140 135 135 133 131 128 123 126 126 122 119 118 121 115 102 96 90 82 82 91 92 86 82 81 71 67 64 71 91 259 262 255 249 246 247 235 247 248 246 243 239
139 140 141 132 129 128 123 119 117 112 115 114 113 112 109 107 100 90 84 79 73 63 67 79 74 70 57 47 43 54 51 281 256 258 255 256 349 267 259 258 256 254 249
137 140 140 144 139 129 122 116 109 103 99 100 99 99 97 94 92 86 79 70 63 56 39 41 56 42 21 357 338 8 341 291 272 266 260 257 24 269 268 268 263 262 258
129 131 138 139 144 142 131 111 105 99 94 92 92 90 93 104 101 91 84 62 52 46 39 25 32 21 8 344 327 314 280 258 260 261 260 268 277 266 267 269 268 269 267
129 122 128 135 133 138 132 122 119 109 101 110 107 102 129 133 124 116 71 51 44 40 32 20 6 12 323 224 259 286 254 258 268 275 278 344 272 265 265 268 272 268 271
149 135 135 134 133 134 133 135 132 129 126 121 113 122 128 112 87 79 98 72 51 30 27 17 339 274 265 256 199 227 252 265 271 266 300 339 278 266 266 267 270 268 269
156 145 133 127 129 133 136 135 127 126 124 116 103 106 119 122 122 125 125 134 175 289 319 335 279 289 293 301 294 276 282 283 276 277 321 13 301 284 274 269 269 270 270
151 143 131 123 117 121 128 129 124 121 112 96 86 74 76 71 20 28 3 358 317 314 325 315 303 304 296 293 288 286 284 279 279 284 331 24 312 301 294 284 277 276 275
154 144 132 119 114 115 117 127 121 108 99 94 77 71 58 57 35 28 4 357 341 334 320 316 304 305 297 300 296 295 291 285 282 278 289 43 316 310 304 296 290 286 282
162 151 128 122 119 119 118 115 106 103 102 90 82 71 63 42 2 342 345 350 346 331 326 308 308 298 293 296 299 296 291 286 282 284 287 294 341 313 307 304 304 302 294
163 149 144 137 132 127 120 109 100 102 109 93 81 62 59 47 325 301 314 324 330 323 319 307 307 296 293 291 292 293 292 291 287 285 289 294 298 353 325 317 313 311 308
158 153 150 146 136 128 124 118 117 112 103 89 55 45 43 24 326 288 293 308 321 318 318 311 309 300 296 299 302 301 294 290 288 293 291 299 307 310 337 348 329 323 319
159 155 148 142 140 135 137 137 130 135 119 100 67 10 349 335 297 271 286 308 316 321 324 316 316 306 303 311 308 301 299 292 294 294 293 306 316 317 314 351 352 337 326
146 147 144 141 140 137 145 145 133 130 126 120 88 48 6 340 294 268 252 302 317 306 321 322 322 315 306 317 309 303 296 289 285 291 293 301 323 324 323 323 319 337 339
133 138 141 140 140 150 163 171 166 177 179 173 129 62 33 3 329 293 271 257 282 294 318 326 312 293 332 331 289 293 275 254 263 276 301 301 325 331 334 332 327 325 324
142 143 141 151 151 160 171 154 174 182 213 209 208 199 304 3 349 325 295 270 270 273 281 317 312 282 301 318 295 281 268 230 192 287 296 295 317 330 333 331 331 327 323
151 153 156 158 156 161 157 139 141 172 199 205 210 215 232 247 237 299 309 291 288 279 274 289 301 279 263 259 291 286 281 284 316 251 265 280 308 317 319 324 321 324 325
166 155 161 165 169 166 173 186 194 222 237 246 250 232 228 235 233 246 282 274 272 278 284 290 302 276 258 251 242 267 289 301 274 281 248 267 301 304 308 307 309 318 323
161 157 167 173 178 178 191 202 215 222 241 248 248 237 239 238 251 250 257 259 258 270 286 290 290 268 254 256 253 256 254 258 256 264 272 279 286 286 297 297 298 301 311
153 159 175 185 189 193 205 211 222 230 230 231 242 249 249 242 244 254 250 248 252 260 274 277 277 272 259 252 252 251 256 252 257 265 273 285 287 288 289 284 284 291 300